Location: Appingedam
(53.3222°N, 6.8488°E)
Time: 21:07:33
(UTC+00:00)

Aureole 1 Rocket - Pass Details

Date: 15 May 2026
Orbit: 372 x 1149 km, 73.9° (Epoch: 8 June)

Event Time Altitude Azimuth Distance (km) Brightness Sun altitude
Rises 22:13:42 0° 331° (NNW) 3,276 8.5 -15.8°
Reaches altitude 10° 22:15:57 10° 327° (NNW) 2,455 7.3 -15.9°
Maximum altitude 22:21:33 57° 251° (WSW) 1,121 4.3 -16.2°
Enters shadow 22:25:44 23° 181° (S) 2,051 5.1 -16.4°
